Lexington Weather

Lexington, Massachusetts, USA

68°F
7/3/2020 12:39pm 
  • Lexington Conditions: Overcast
  • Temperature: 67.8°F / 19.9°CColder 1.1°F than last hour.
  • Dew Point: 63.9°FDecreased 1.2°Fsince last hour.
  • Relative Humidity: 87%Decreased 1.0% since last hour.
  • Wind: Wind from N N 2 mph, 10-min avg: 1 mph, gust: 3 mph
  • Barometer: 29.86 in Steady
  • Visibility: 10 miles
  • Rain Today: 0.00 in
  •   

Regional Weather Roundup
for Boston / Norton, MA

        
000
ASUS41 KBOX 282304
RWRBOX

REGIONAL WEATHER ROUNDUP
NATIONAL WEATHER SERVICE BOSTON/NORTON MA
700 PM EDT SUN JUN 28 2020

NOTE:  "FAIR" INDICATES FEW OR NO CLOUDS BELOW 12,000 FEET WITH NO 
SIGNIFICANT WEATHER AND/OR OBSTRUCTIONS TO VISIBILITY.

MAZALL-290000-
EASTERN MASSACHUSETTS
  
CITY           SKY/WX    TMP DP  RH WIND       PRES   REMARKS
BOSTON         TSTM      68  65  90 SW7       29.73S                  
BEVERLY        CLOUDY    69  65  86 SW3       29.72S                  
LAWRENCE       CLOUDY    72  67  84 SE3       29.74S                  
BEDFORD        CLOUDY    68  64  87 S9        29.72S                  
BLUE HILL        N/A     64  63  96 S12       29.75R                  
NORWOOD        CLOUDY    68  63  84 SW5       29.76R                  
MARSHFIELD     CLOUDY    72  72 100 CALM      29.73S THUNDER          
PLYMOUTH       CLOUDY    74  68  81 W13       29.76R                  
TAUNTON        CLOUDY    71  62  73 N5        29.77R THUNDER          
NEW BEDFORD    CLOUDY    74  66  76 VRB7      29.76R                  
$$

MAZALL-290000-
CAPE COD AND THE ISLANDS
  
CITY           SKY/WX    TMP DP  RH WIND       PRES   REMARKS
FALMOUTH       MOSUNNY   72  68  88 S9        29.76R                  
HYANNIS        CLOUDY    73  68  84 S6        29.75R                  
CHATHAM        CLOUDY    66  62  87 S7        29.76S                  
PROVINCETOWN   CLOUDY    73  69  87 S8        29.76R                  
NANTUCKET      TSTM      67  66  97 SE8       29.75S FOG              
MARTHAS VNYRD  PTSUNNY   69  67  93 S3        29.75S                  
$$
 
MAZALL-290000-
CENTRAL AND WESTERN MASSACHUSETTS
  
CITY           SKY/WX    TMP DP  RH WIND       PRES   REMARKS
WORCESTER      HVY RAIN  69  65  86 SE9       29.77R                  
FITCHBURG      CLOUDY    73  63  70 SE13      29.73R THUNDER          
ORANGE         CLOUDY    74  70  87 S3        29.72S                  
SPRINGFIELD    TSTM      70  68  94 NE6       29.72R                  
WESTFIELD      LGT RAIN  72  67  84 E3        29.72R                  
NORTH ADAMS    CLOUDY    69  64  84 SE6       29.72S                  
PITTSFIELD     CLOUDY    66  64  93 CALM      29.73R                  
$$
 
RIZALL-290000-
RHODE ISLAND
  
CITY           SKY/WX    TMP DP  RH WIND       PRES   REMARKS
PROVIDENCE     CLOUDY    73  62  68 N16       29.78R                  
NEWPORT        PTSUNNY   73  69  87 CALM      29.77R                  
BLOCK ISLAND   PTSUNNY   72  68  87 MISG        N/A                   
SMITHFIELD     TSTM      62  62 100 W10G24    29.81R FOG              
WESTERLY       CLOUDY    76  67  73 SE5       29.75R                  
$$
 
CTZALL-290000-
CONNECTICUT
  
CITY           SKY/WX    TMP DP  RH WIND       PRES   REMARKS
BRADLEY INTL   CLOUDY    77  62  59 W7        29.71R                  
HARTFORD       CLOUDY    78  68  71 SW5       29.69R                  
BRIDGEPORT     CLOUDY    73  67  81 E7        29.71F                  
DANBURY        TSTM      69  64  84 VRB5G18   29.73R                  
GROTON         CLOUDY    71  68  90 SE5       29.71S                  
NEW HAVEN      CLOUDY    72  69  90 S3        29.70F                  
CHESTER        NOT AVBL                                               
MERIDEN        CLOUDY    70  67  90 CALM      29.70F                  
WILLIMANTIC    CLOUDY    76  73  91 VRB3      29.72R                  
OXFORD         TSTM      69  68  96 W3        29.75R                  
$$

MEZ002-015-021-024-NHZ003-005-008-011-012-014-VTZ005-008-290000-
NORTHERN NEW ENGLAND
  
CITY           SKY/WX    TMP DP  RH WIND       PRES   REMARKS
PORTLAND ME    CLOUDY    69  64  84 E6        29.77S                  
BANGOR ME      CLOUDY    72  60  66 S8        29.78R                  
CONCORD NH     PTSUNNY   77  66  68 SE6       29.71R                  
MANCHESTER NH  PTSUNNY   76  66  71 S7        29.71R THUNDER          
NASHUA NH      CLOUDY    75  70  84 SE6       29.71F                  
PORTSMOUTH NH  PTSUNNY   69  66  91 SE7       29.72F                  
JAFFREY NH     CLOUDY    78  63  59 CALM      29.73F                  
KEENE NH       CLOUDY    77  69  76 SE3       29.70F                  
BURLINGTON VT  PTSUNNY   77  66  68 NW5       29.71F                  
MT. WASHINGTON FOG       50  50 100 S9          N/A  VSB 1/8          
$$

NYZ052-076-290000-
EASTERN NEW YORK
  
CITY           SKY/WX    TMP DP  RH WIND       PRES   REMARKS
ALBANY         CLOUDY    76  66  71 CALM      29.71S                  
NEW YORK CITY  PTSUNNY   83  65  54 E6        29.68F                  
$$
 
ANZALL-290000-
MARINE OBSERVATIONS
  
STATION/POSITION TIME  TEMP    WIND        PRES    VSBY  WAVE
                       AIR SEA DIR/SP/G                  HT/PER
                 (UTC) (F)     (DEG/KT/KT) (MB)    (MI)  (FT/S)
BOSTON BUOY      2250   69 68   CALM  /  2 1005.7R         1/ 7
BUZZARDS BAY     2200          160/ 14/ 14 1007.7F
NANTUCKET SOUND  2250   68 71  180/ 10/ 14 1006.6R         1/ 3
MASS BAY-STELLWA 2204   67     110/  6/  8 1004.4R  1 7/8  2/ 8
ISLE OF SHOALS   2200   68     140/ 18/ 19 1006.0R
S OF BLOCK IS    2226      70                N/A           3/ 6
$$

......................KEY.........................
  SKY/WX - SKY CONDITION/PRESENT WEATHER
  TMP    - TEMPERATURE IN FAHRENHEIT
  DWPT   - DEWPOINT IN FAHRENHEIT
  RH     - RELATIVE HUMIDITY IN PERCENT
  WIND   - DIRECTION AND SPEED IN MPH
  PRES   - MEAN SEA LEVEL PRESSURE IN INCHES OF HG
  WCI    - WIND CHILL INDEX
  VSB    - VISIBILITY IN MILES
  HX     - HEAT INDEX
  TC     - TEMPERATURE IN CELSIUS
  VRB    - VARIABLE WIND DIRECTION
  N/A    - NOT AVAILABLE
  
      

Other recent Regional Weather Roundups

Fri Jul 3, 12:04pm

Fri Jul 3, 11:04am

Fri Jul 3, 10:04am

Fri Jul 3, 9:04am

Fri Jul 3, 8:04am

Fri Jul 3, 7:04am

Fri Jul 3, 6:04am

Fri Jul 3, 5:04am

Fri Jul 3, 4:04am

Fri Jul 3, 3:04am

Fri Jul 3, 2:04am

Fri Jul 3, 1:04am

Fri Jul 3, 12:04am

Thu Jul 2, 11:05pm

Thu Jul 2, 10:04pm

Thu Jul 2, 9:04pm

Thu Jul 2, 8:04pm

Thu Jul 2, 7:05pm

Thu Jul 2, 6:04pm

Thu Jul 2, 5:05pm

Thu Jul 2, 4:04pm

Thu Jul 2, 3:04pm

Thu Jul 2, 2:04pm

Thu Jul 2, 1:05pm

Thu Jul 2, 12:04pm

Thu Jul 2, 11:04am

Thu Jul 2, 10:05am

Thu Jul 2, 9:05am

Thu Jul 2, 8:04am

Thu Jul 2, 7:04am

Thu Jul 2, 6:05am

Thu Jul 2, 5:04am

Thu Jul 2, 4:04am

Thu Jul 2, 3:04am

Thu Jul 2, 2:04am

Thu Jul 2, 1:04am

Thu Jul 2, 12:05am

Wed Jul 1, 11:05pm

Wed Jul 1, 10:04pm

Wed Jul 1, 9:04pm

Wed Jul 1, 8:04pm

Wed Jul 1, 7:04pm

Wed Jul 1, 6:04pm

Wed Jul 1, 5:05pm

Wed Jul 1, 4:04pm

Wed Jul 1, 3:04pm

Wed Jul 1, 2:04pm

Wed Jul 1, 1:04pm

Wed Jul 1, 12:04pm

Wed Jul 1, 11:04am

Wed Jul 1, 10:04am

Wed Jul 1, 9:04am

Wed Jul 1, 8:05am

Wed Jul 1, 7:04am

Wed Jul 1, 6:04am

Wed Jul 1, 5:04am

Wed Jul 1, 4:04am

Wed Jul 1, 3:04am

Wed Jul 1, 2:04am

Wed Jul 1, 1:04am

Wed Jul 1, 12:04am

Tue Jun 30, 11:04pm

Tue Jun 30, 10:05pm

Tue Jun 30, 9:04pm

Tue Jun 30, 8:05pm

Tue Jun 30, 7:05pm

Tue Jun 30, 6:04pm

Tue Jun 30, 5:04pm

Tue Jun 30, 4:04pm

Tue Jun 30, 3:04pm

Tue Jun 30, 2:04pm

Tue Jun 30, 1:04pm

Tue Jun 30, 12:04pm

Tue Jun 30, 11:04am

Tue Jun 30, 10:04am

Tue Jun 30, 9:04am

Tue Jun 30, 8:04am

Tue Jun 30, 7:04am

Tue Jun 30, 6:04am

Tue Jun 30, 5:04am

Tue Jun 30, 4:04am

Tue Jun 30, 3:04am

Tue Jun 30, 2:04am

Tue Jun 30, 1:04am

Tue Jun 30, 12:04am

Mon Jun 29, 11:04pm

Mon Jun 29, 10:05pm

Mon Jun 29, 9:04pm

Mon Jun 29, 8:05pm

Mon Jun 29, 7:04pm

Mon Jun 29, 6:04pm

Mon Jun 29, 5:04pm

Mon Jun 29, 4:05pm

Mon Jun 29, 3:04pm

Mon Jun 29, 2:04pm

Mon Jun 29, 1:04pm

Mon Jun 29, 12:04pm

Mon Jun 29, 11:04am

Mon Jun 29, 10:04am

Mon Jun 29, 9:04am

Mon Jun 29, 8:04am

Mon Jun 29, 7:04am

Mon Jun 29, 6:04am

Mon Jun 29, 5:04am

Mon Jun 29, 4:04am

Mon Jun 29, 3:04am

Mon Jun 29, 2:04am

Mon Jun 29, 1:04am

Mon Jun 29, 12:04am

Sun Jun 28, 11:05pm

Sun Jun 28, 10:04pm

Sun Jun 28, 9:05pm

Sun Jun 28, 8:04pm

Sun Jun 28, 6:04pm

Sun Jun 28, 5:04pm

Sun Jun 28, 4:04pm

Sun Jun 28, 3:04pm

Sun Jun 28, 2:05pm

Sun Jun 28, 1:04pm

Sun Jun 28, 12:04pm

Sun Jun 28, 11:04am

Sun Jun 28, 10:04am

Sun Jun 28, 9:04am

Sun Jun 28, 8:04am

Sun Jun 28, 7:04am

Sun Jun 28, 6:04am

Sun Jun 28, 5:04am

Sun Jun 28, 4:04am

Sun Jun 28, 3:04am

Sun Jun 28, 2:05am

Sun Jun 28, 1:04am

Sun Jun 28, 12:05am

Sat Jun 27, 11:04pm

Sat Jun 27, 10:04pm

Sat Jun 27, 9:04pm

Sat Jun 27, 8:04pm

Sat Jun 27, 7:04pm

Sat Jun 27, 6:04pm

Sat Jun 27, 5:04pm

Sat Jun 27, 4:05pm

Sat Jun 27, 3:04pm

Sat Jun 27, 2:04pm

Sat Jun 27, 1:05pm

Sat Jun 27, 12:04pm

Sat Jun 27, 11:04am

Sat Jun 27, 10:04am

Sat Jun 27, 9:04am

Sat Jun 27, 8:04am

Sat Jun 27, 7:04am

Sat Jun 27, 6:04am

Sat Jun 27, 5:05am

Sat Jun 27, 4:04am

Sat Jun 27, 3:04am

Sat Jun 27, 2:04am

Sat Jun 27, 1:04am

Sat Jun 27, 12:04am

Fri Jun 26, 11:04pm

Fri Jun 26, 10:04pm

Fri Jun 26, 9:05pm

Fri Jun 26, 8:04pm

Fri Jun 26, 7:05pm

Fri Jun 26, 6:04pm

Fri Jun 26, 5:04pm

Fri Jun 26, 4:04pm

Fri Jun 26, 3:04pm

Fri Jun 26, 2:05pm

Fri Jun 26, 1:04pm

Meta data:

ID: e72a7e41-8151-4624-a77c-a041fa5cf7e7
Link: https://api.weather.gov/products/e72a7e41-8151-4624-a77c-a041fa5cf7e7